SM6PGP-2 Weather Reports


Display with metric or nautical units.
time (UTC)temp
F
wind
direction
speed
MPH
gust
MPH
rain 1hr
in
rain 24hr
in
rain mn
in
humidity
%
barometer
mb
20260506023926 24 0 1.0 2.0 0.00 0.00 0.02 72 1010.2
20260506023421 24 90 0.0 2.0 0.00 0.00 0.02 71 1010.3
20260506022916 25 0 1.0 1.0 0.00 0.00 0.02 71 1010.1
20260506022411 25 315 0.0 1.0 0.00 0.00 0.02 71 1010.2
20260506021905 25 90 0.0 1.0 0.00 0.00 0.02 70 1010.2
20260506021400 25 0 2.0 3.0 0.00 0.00 0.02 70 1010.3
20260506020855 25 45 1.0 3.0 0.00 0.00 0.02 70 1010.3
20260506020350 25 0 1.0 2.0 0.00 0.00 0.02 70 1010.2
20260506015845 25 45 2.0 4.0 0.00 0.00 0.02 69 1010.3
20260506015339 25 45 0.0 2.0 0.00 0.00 0.02 69 1010.2
20260506014834 25 0 2.0 4.0 0.00 0.00 0.02 69 1010.1
20260506014329 25 0 3.0 3.0 0.00 0.00 0.02 68 1010.1
20260506013824 25 0 4.0 4.0 0.00 0.00 0.02 68 1010.2
20260506013319 25 45 0.0 1.0 0.00 0.00 0.01 67 1010.1
20260506012813 26 45 1.0 1.0 0.00 0.00 0.01 67 1010.1
20260506012308 26 45 1.0 1.0 0.00 0.00 0.01 67 1010.0
20260506011803 26 18 0.0 3.0 0.00 0.00 0.01 67 1010.1
20260506011258 26 45 1.0 1.0 0.00 0.00 0.01 67 1010.0
20260506010753 26 135 0.0 1.0 0.00 0.00 0.01 67 1009.9
20260506010247 26 45 1.0 2.0 0.00 0.00 0.01 66 1009.9
20260506005742 26 0 1.0 2.0 0.00 0.00 0.01 66 1009.9
20260506005237 26 0 0.0 3.0 0.00 0.00 0.01 67 1009.9
20260506004732 26 0 1.0 2.0 0.00 0.00 0.00 65 1010.0
20260506003718 27 0 3.0 3.0 0.00 0.00 0.00 65 1009.9
20260506003213 27 45 1.0 2.0 0.00 0.00 0.00 65 1009.9
20260506002708 27 45 0.0 3.0 0.00 0.00 0.00 65 1009.9
20260506002203 27 0 2.0 3.0 0.00 0.00 0.00 65 1009.9
20260506001658 27 45 2.0 2.0 0.00 0.00 0.00 64 1009.9
20260506001152 27 45 0.0 2.0 0.00 0.00 0.00 64 1009.9
20260506000647 27 45 1.0 2.0 0.00 0.00 0.00 64 1009.9
20260506000142 27 45 1.0 2.0 0.00 0.00 0.00 64 1010.0
20260505235637 27 90 0.0 1.0 0.00 0.00 0.00 63 1009.9
20260505235132 27 45 1.0 1.0 0.00 0.00 0.00 63 1009.9
20260505234626 27 45 1.0 2.0 0.00 0.00 0.00 63 1009.9
20260505234121 28 90 0.0 2.0 0.00 0.00 0.00 62 1010.0
20260505233616 28 0 2.0 3.0 0.00 0.00 0.00 62 1010.0
20260505233111 29 45 0.0 0.0 0.00 0.00 0.00 62 1010.0
20260505232606 29 0 1.0 2.0 0.00 0.00 0.00 63 1010.0
20260505232100 29 0 3.0 4.0 0.00 0.00 0.00 62 1009.9
20260505231555 29 0 1.0 3.0 0.00 0.00 0.00 63 1010.0
20260505231050 30 135 0.0 2.0 0.00 0.00 0.00 62 1010.0
20260505230545 30 27 3.0 4.0 0.00 0.00 0.00 63 1010.1
20260505230040 29 22 4.0 4.0 0.00 0.00 0.00 62 1010.1
20260505225534 29 0 2.0 3.0 0.00 0.00 0.00 62 1010.1
20260505225029 29 0 2.0 4.0 0.00 0.00 0.00 61 1010.1
20260505224524 29 0 2.0 2.0 0.00 0.00 0.00 61 1010.1
20260505224019 29 180 1.0 1.0 0.00 0.00 0.00 60 1010.2
20260505223514 29 22 1.0 3.0 0.00 0.00 0.00 60 1010.2
20260505223008 29 9 2.0 2.0 0.00 0.00 0.00 60 1010.3
20260505222503 29 45 0.0 1.0 0.00 0.00 0.00 59 1010.2
20260505221958 29 270 1.0 3.0 0.00 0.00 0.00 57 1010.3
20260505221453 29 45 0.0 0.0 0.00 0.00 0.00 57 1010.3
20260505220948 29 45 0.0 0.0 0.00 0.00 0.00 57 1010.2
20260505220442 30 45 0.0 2.0 0.00 0.00 0.00 56 1010.1
20260505215937 30 0 1.0 2.0 0.00 0.00 0.00 56 1010.3
20260505215432 30 45 0.0 0.0 0.00 0.00 0.00 55 1010.3
20260505214927 30 90 0.0 0.0 0.00 0.00 0.00 54 1010.3
20260505214422 30 90 0.0 0.0 0.00 0.00 0.00 53 1010.3
20260505213916 30 90 0.0 0.0 0.00 0.00 0.00 53 1010.2
20260505213411 31 45 0.0 0.0 0.00 0.00 0.00 52 1010.1
20260505212906 31 45 0.0 0.0 0.00 0.00 0.00 52 1010.1
20260505212401 32 0 0.0 1.0 0.00 0.00 0.00 51 1010.1
20260505211856 32 0 0.0 1.0 0.00 0.00 0.00 51 1010.0
20260505211350 32 0 1.0 2.0 0.00 0.00 0.00 51 1010.0
20260505210845 32 45 2.0 2.0 0.00 0.00 0.00 50 1010.0
20260505210340 32 45 0.0 0.0 0.00 0.00 0.00 49 1010.1
20260505205835 33 0 0.0 0.0 0.00 0.00 0.00 48 1010.1
20260505205330 33 45 0.0 0.0 0.00 0.00 0.00 48 1010.1
20260505204824 33 45 0.0 0.0 0.00 0.00 0.00 47 1010.0
20260505204319 33 45 0.0 0.0 0.00 0.00 0.00 47 1010.0
20260505203814 33 45 0.0 0.0 0.00 0.00 0.00 46 1010.0
20260505203309 34 45 1.0 1.0 0.00 0.00 0.00 45 1009.9
20260505202804 34 0 0.0 1.0 0.00 0.00 0.00 44 1010.0
20260505202258 34 0 2.0 2.0 0.00 0.00 0.00 43 1009.9
20260505201753 35 90 0.0 0.0 0.00 0.00 0.00 42 1009.9
20260505201248 35 90 0.0 0.0 0.00 0.00 0.00 42 1009.9
20260505200743 36 90 0.0 0.0 0.00 0.00 0.00 41 1010.0
20260505200238 36 135 0.0 1.0 0.00 0.00 0.00 41 1009.8
20260505195732 37 135 1.0 2.0 0.00 0.00 0.00 39 1009.8
20260505195227 37 135 0.0 2.0 0.00 0.00 0.00 39 1009.8
20260505194722 37 135 1.0 2.0 0.00 0.00 0.00 38 1009.8
20260505193707 37 135 2.0 2.0 0.00 0.00 0.00 36 1009.8
20260505193201 37 90 1.0 1.0 0.00 0.00 0.00 35 1009.6
20260505192656 37 90 0.0 1.0 0.00 0.00 0.00 35 1009.6
20260505192151 37 90 0.0 0.0 0.00 0.00 0.00 34 1009.6
20260505191646 38 90 0.0 0.0 0.00 0.00 0.00 32 1009.8
20260505191141 39 90 0.0 0.0 0.00 0.00 0.00 31 1009.7
20260505190635 39 90 0.0 0.0 0.00 0.00 0.00 30 1009.6
20260505190130 40 45 0.0 1.0 0.00 0.00 0.00 29 1009.5
20260505185625 40 90 0.0 3.0 0.00 0.00 0.00 29 1009.5
20260505184610 42 270 0.0 2.0 0.00 0.00 0.00 27 1009.5
20260505184104 42 315 1.0 2.0 0.00 0.00 0.00 29 1009.5
20260505183559 43 315 2.0 4.0 0.00 0.00 0.00 27 1009.5
20260505183054 43 346 2.0 3.0 0.00 0.00 0.00 28 1009.6
20260505182549 44 324 2.0 3.0 0.00 0.00 0.00 26 1009.6
20260505182044 44 18 0.0 3.0 0.00 0.00 0.00 24 1009.5
20260505181539 45 0 1.0 4.0 0.00 0.00 0.00 23 1009.5
20260505181033 45 297 3.0 3.0 0.00 0.00 0.00 24 1009.5
20260505180528 46 333 0.0 4.0 0.00 0.00 0.00 22 1009.5
20260505180023 46 315 4.0 7.0 0.00 0.00 0.00 24 1009.4
20260505175518 47 310 4.0 5.0 0.00 0.00 0.00 22 1009.5
20260505175012 47 252 3.0 8.0 0.00 0.00 0.00 20 1009.4
20260505174507 48 342 3.0 10.0 0.00 0.00 0.00 17 1009.3
20260505174002 49 279 4.0 9.0 0.00 0.00 0.00 15 1009.4
20260505173457 49 337 9.0 9.0 0.00 0.00 0.00 16 1009.4
20260505172952 50 283 2.0 4.0 0.00 0.00 0.00 20 1009.2
20260505172446 50 315 2.0 7.0 0.00 0.00 0.00 21 1009.3
20260505171941 50 225 2.0 5.0 0.00 0.00 0.00 20 1009.3
20260505171436 51 315 2.0 4.0 0.00 0.00 0.00 21 1009.2
20260505170931 50 310 7.0 10.0 0.00 0.00 0.00 22 1009.2
20260505170426 49 337 2.0 4.0 0.00 0.00 0.00 22 1009.2
20260505165920 48 306 5.0 5.0 0.00 0.00 0.00 23 1009.3
20260505165415 48 301 4.0 11.0 0.00 0.00 0.00 20 1009.3
20260505164910 49 315 9.0 13.0 0.00 0.00 0.00 19 1009.4
20260505164405 49 315 2.0 4.0 0.00 0.00 0.00 18 1009.5
20260505163900 50 261 5.0 5.0 0.00 0.00 0.00 16 1009.5
20260505163354 51 324 7.0 11.0 0.00 0.00 0.00 17 1009.5
20260505162849 51 315 5.0 12.0 0.00 0.00 0.00 18 1009.4
20260505162344 51 310 3.0 17.0 0.00 0.00 0.00 17 1009.4
20260505161839 51 306 6.0 12.0 0.00 0.00 0.00 20 1009.4
20260505161334 51 297 3.0 13.0 0.00 0.00 0.00 17 1009.5
20260505160828 51 337 3.0 8.0 0.00 0.00 0.00 14 1009.4
20260505160323 52 297 5.0 8.0 0.00 0.00 0.00 15 1009.5
20260505153252 53 306 7.0 23.0 0.00 0.00 0.00 15 1009.4
20260505152747 53 279 5.0 15.0 0.00 0.00 0.00 19 1009.5
20260505152242 53 288 3.0 9.0 0.00 0.00 0.00 17 1009.6
20260505151736 53 270 12.0 12.0 0.00 0.00 0.00 19 1009.5
20260505151231 52 258 1.0 9.0 0.00 0.00 0.00 18 1009.6
20260505150726 52 301 8.0 10.0 0.00 0.00 0.00 16 1009.6
20260505140619 53 270 5.0 16.0 0.00 0.00 0.00 24 1009.7
20260505140114 53 265 2.0 10.0 0.00 0.00 0.00 25 1009.8
20260505125001 52 297 6.0 13.0 0.00 0.00 0.00 26 1009.6
20260505124456 52 252 8.0 15.0 0.00 0.00 0.00 25 1009.5
20260505123950 52 270 5.0 18.0 0.00 0.00 0.00 27 1009.6
20260505123445 52 238 11.0 13.0 0.00 0.00 0.00 25 1009.5
20260505122940 52 270 10.0 19.0 0.00 0.00 0.00 25 1009.5
20260505122435 52 261 5.0 16.0 0.00 0.00 0.00 25 1009.6
20260505121930 52 247 5.0 10.0 0.00 0.00 0.00 24 1009.6
20260505121424 52 292 6.0 7.0 0.00 0.00 0.00 29 1009.6
20260505120919 52 301 5.0 12.0 0.00 0.00 0.00 27 1009.6
20260505120414 52 274 4.0 13.0 0.00 0.00 0.00 28 1009.7
20260505115909 52 328 8.0 16.0 0.00 0.00 0.00 29 1009.5
20260505115404 53 261 5.0 20.0 0.00 0.00 0.00 27 1009.5
20260505114858 53 279 5.0 11.0 0.00 0.00 0.00 27 1009.4
20260505114354 53 283 3.0 14.0 0.00 0.00 0.00 26 1009.4
20260505113848 53 261 8.0 13.0 0.00 0.00 0.00 26 1009.4
20260505113343 53 247 7.0 7.0 0.00 0.00 0.00 24 1009.3
20260505112838 53 270 6.0 18.0 0.00 0.00 0.00 24 1009.3
20260505112332 54 243 3.0 13.0 0.00 0.00 0.00 21 1009.3
20260505111827 54 333 3.0 7.0 0.00 0.00 0.00 20 1009.3
20260505111322 54 288 8.0 9.0 0.00 0.00 0.00 22 1009.3
20260505110817 54 288 5.0 6.0 0.00 0.00 0.00 19 1009.3
20260505110312 54 301 5.0 10.0 0.00 0.00 0.00 26 1009.3
20260505101725 54 324 6.0 11.0 0.00 0.00 0.00 26 1009.3
20260505101220 54 270 6.0 12.0 0.00 0.00 0.00 25 1009.4
20260505100714 54 45 9.0 10.0 0.00 0.00 0.00 25 1009.3
20260505100209 54 310 9.0 13.0 0.00 0.00 0.00 23 1009.4
20260505095705 55 274 5.0 10.0 0.00 0.00 0.00 24 1009.3
20260505095159 55 261 12.0 12.0 0.00 0.00 0.00 24 1009.2
20260505094654 54 180 4.0 11.0 0.00 0.00 0.00 25 1009.2
20260505094148 54 324 3.0 10.0 0.00 0.00 0.00 24 1009.2
20260505093643 54 270 9.0 12.0 0.00 0.00 0.00 25 1009.1
20260505093139 54 279 5.0 15.0 0.00 0.00 0.00 21 1009.0
20260505092633 55 270 11.0 13.0 0.00 0.00 0.00 25 1008.9
20260505092128 55 351 4.0 14.0 0.00 0.00 0.00 24 1008.9
20260505091622 54 333 3.0 7.0 0.00 0.00 0.00 22 1008.9
20260505091117 54 324 3.0 8.0 0.00 0.00 0.00 19 1008.9
20260505090613 53 345 8.0 13.0 0.00 0.00 0.00 21 1009.0
20260505090107 54 279 8.0 12.0 0.00 0.00 0.00 24 1009.0
20260505085602 54 283 7.0 13.0 0.00 0.00 0.00 25 1009.0
20260505085057 55 261 5.0 7.0 0.00 0.00 0.00 30 1009.0
20260505084551 54 306 4.0 11.0 0.00 0.00 0.00 27 1009.0
20260505084047 54 320 5.0 10.0 0.00 0.00 0.00 30 1009.0
20260505083541 54 4 4.0 8.0 0.00 0.00 0.00 27 1008.9
20260505083036 54 288 5.0 11.0 0.00 0.00 0.00 27 1008.8
20260505082530 54 270 10.0 11.0 0.00 0.00 0.00 27 1008.7
20260505082025 54 310 7.0 14.0 0.00 0.00 0.00 26 1008.8
20260505081521 54 292 7.0 10.0 0.00 0.00 0.00 27 1008.8
20260505081015 54 351 8.0 10.0 0.00 0.00 0.00 28 1008.7
20260505080510 53 310 9.0 9.0 0.00 0.00 0.00 31 1008.6
20260505080005 53 306 4.0 13.0 0.00 0.00 0.00 29 1008.6
20260505075459 54 328 9.0 10.0 0.00 0.00 0.00 28 1008.6
20260505074955 53 22 4.0 10.0 0.00 0.00 0.00 27 1008.5
20260505074449 54 288 7.0 10.0 0.00 0.00 0.00 29 1008.4
20260505073944 54 279 9.0 9.0 0.00 0.00 0.00 32 1008.4
20260505073439 54 292 6.0 12.0 0.00 0.00 0.00 27 1008.4
20260505072933 54 279 3.0 12.0 0.00 0.00 0.00 30 1008.4
20260505072429 53 0 4.0 4.0 0.00 0.00 0.00 35 1008.3
20260505071923 53 261 5.0 8.0 0.00 0.00 0.00 32 1008.3
20260505071418 53 0 2.0 9.0 0.00 0.00 0.00 34 1008.4
20260505070913 54 270 8.0 11.0 0.00 0.00 0.00 35 1008.3
20260505070407 55 283 8.0 13.0 0.00 0.00 0.00 35 1008.3
20260505065903 55 279 8.0 8.0 0.00 0.00 0.00 33 1008.2
20260505065357 54 9 0.0 5.0 0.00 0.00 0.00 36 1008.3
20260505064852 54 328 3.0 5.0 0.00 0.00 0.00 38 1008.2
20260505064347 54 0 2.0 7.0 0.00 0.00 0.00 36 1008.1
20260505063841 53 52 6.0 6.0 0.00 0.00 0.00 40 1008.1
20260505063337 53 297 2.0 5.0 0.00 0.00 0.00 39 1008.1
20260505062831 53 351 5.0 7.0 0.00 0.00 0.00 39 1008.2
20260505062326 52 303 1.0 8.0 0.00 0.00 0.00 39 1008.0
20260505061821 52 288 5.0 7.0 0.00 0.00 0.00 41 1008.0
20260505061315 52 346 3.0 6.0 0.00 0.00 0.00 41 1008.2
20260505060811 52 13 3.0 8.0 0.00 0.00 0.00 44 1008.2
20260505060305 51 342 5.0 7.0 0.00 0.00 0.00 44 1008.0
20260505055800 51 355 6.0 9.0 0.00 0.00 0.00 46 1008.1
20260505055255 51 13 4.0 7.0 0.00 0.00 0.00 45 1007.9
20260505054749 51 342 4.0 9.0 0.00 0.00 0.00 47 1008.0
20260505054245 51 331 1.0 9.0 0.00 0.00 0.00 47 1007.8
20260505053739 50 342 4.0 5.0 0.00 0.00 0.00 52 1008.0
20260505053234 50 333 3.0 11.0 0.00 0.00 0.00 51 1007.9
20260505052729 49 324 3.0 6.0 0.00 0.00 0.00 54 1007.8
20260505052224 49 351 6.0 8.0 0.00 0.00 0.00 55 1007.8
20260505051719 49 0 1.0 8.0 0.00 0.00 0.00 57 1007.8
20260505051213 48 351 2.0 9.0 0.00 0.00 0.00 56 1007.8
20260505050708 48 45 2.0 5.0 0.00 0.00 0.00 60 1007.8
20260505050203 47 315 2.0 6.0 0.00 0.00 0.00 61 1007.7
20260505041613 43 301 4.0 7.0 0.00 0.00 0.00 68 1007.4
20260505041108 43 306 1.0 9.0 0.00 0.00 0.00 70 1007.4
20260505040602 43 333 7.0 10.0 0.00 0.00 0.00 70 1007.3
20260505040058 43 0 3.0 5.0 0.00 0.00 0.00 72 1007.3
20260505035552 43 0 1.0 8.0 0.00 0.00 0.00 73 1007.3
20260505035047 43 117 3.0 9.0 0.00 0.00 0.00 73 1007.4
20260505034542 43 261 6.0 12.0 0.00 0.00 0.00 73 1007.3
20260505034036 43 342 2.0 9.0 0.00 0.00 0.00 74 1007.4
20260505033532 43 0 2.0 11.0 0.00 0.00 0.00 74 1007.4
20260505033026 43 288 3.0 6.0 0.00 0.00 0.00 74 1007.3
20260505032521 43 315 8.0 10.0 0.00 0.00 0.00 74 1007.2
20260505032016 43 310 5.0 6.0 0.00 0.00 0.00 75 1007.3
20260505031510 43 67 8.0 8.0 0.00 0.00 0.00 75 1007.2
20260505031006 44 315 3.0 4.0 0.00 0.00 0.00 75 1007.2
20260505030500 44 297 2.0 7.0 0.00 0.00 0.00 75 1007.3
20260505025955 44 256 5.0 6.0 0.00 0.00 0.00 75 1007.2
20260505025450 44 333 3.0 12.0 0.00 0.00 0.00 75 1007.4
20260505024945 44 211 7.0 8.0 0.00 0.00 0.00 75 1007.3
20260505024440 44 348 5.0 11.0 0.00 0.00 0.00 75 1007.2